GW3457 Weather Reports


time (UTC)temp
C
wind
direction
speed
KPH
gust
KPH
rain 1hr
cm
rain 24hr
cm
rain mn
cm
humidity
%
barometer
mb
20260504044559 5 162 1.6 6.4 0.00 0.00 0.00 72 1015.2
20260504043055 5 180 1.6 6.4 0.00 0.00 0.00 72 1015.2
20260504041549 6 0 1.6 6.4 0.00 0.00 0.00 71 1015.1
20260504040104 6 171 3.2 6.4 0.00 0.00 0.00 71 1015.2
20260504034611 6 0 0.0 0.0 0.00 0.00 0.00 68 1015.2
20260504033047 6 0 0.0 0.0 0.00 0.00 0.00 67 1015.0
20260504031544 7 0 0.0 3.2 0.00 0.00 0.00 66 1015.0
20260504030048 7 0 0.0 0.0 0.00 0.00 0.00 65 1015.1
20260504024549 7 0 0.0 6.4 0.00 0.00 0.00 63 1015.0
20260504023048 7 360 1.6 6.4 0.00 0.00 0.00 61 1015.0
20260504021550 8 0 0.0 4.8 0.00 0.00 0.00 59 1015.0
20260504020043 8 360 1.6 4.8 0.00 0.00 0.00 57 1014.7
20260504014543 8 0 1.6 4.8 0.00 0.00 0.00 55 1014.6
20260504013053 9 360 1.6 4.8 0.00 0.00 0.00 53 1014.6
20260504011548 10 0 0.0 3.2 0.00 0.00 0.00 50 1014.6
20260504010052 11 360 1.6 4.8 0.00 0.00 0.00 47 1014.5
20260504004550 11 360 1.6 4.8 0.00 0.00 0.00 43 1014.4
20260504003048 12 0 0.0 4.8 0.00 0.00 0.00 41 1014.2
20260504001600 13 179 0.0 3.2 0.00 0.00 0.00 38 1014.2
20260504000047 14 0 0.0 11.3 0.00 0.00 0.00 34 1014.1
20260503234549 15 44 3.2 16.1 0.00 0.00 0.00 30 1013.8
20260503233045 15 177 4.8 17.7 0.00 0.00 0.00 30 1013.9
20260503231548 15 165 6.4 17.7 0.00 0.00 0.00 29 1013.8
20260503230047 15 154 4.8 19.3 0.00 0.00 0.00 29 1013.7
20260503224546 15 14 9.7 25.7 0.00 0.00 0.00 28 1013.5
20260503223048 16 26 6.4 25.7 0.00 0.00 0.00 27 1013.5
20260503221547 16 21 8.0 29.0 0.00 0.00 0.00 28 1013.7
20260503220049 16 19 12.9 27.4 0.00 0.00 0.00 28 1013.8
20260503214547 16 17 16.1 24.1 0.00 0.00 0.00 27 1013.7
20260503213047 16 17 14.5 38.6 0.00 0.00 0.00 27 1014.1
20260503211556 16 15 11.3 32.2 0.00 0.00 0.00 28 1013.8
20260503210047 16 18 11.3 32.2 0.00 0.00 0.00 27 1013.9
20260503204555 16 15 9.7 22.5 0.00 0.00 0.00 27 1013.8
20260503203051 16 21 14.5 30.6 0.00 0.00 0.00 27 1014.0
20260503201547 16 19 12.9 32.2 0.00 0.00 0.00 27 1014.0
20260503200050 16 19 8.0 27.4 0.00 0.00 0.00 28 1014.2
20260503194549 15 19 8.0 25.7 0.00 0.00 0.00 26 1014.4
20260503193102 16 17 11.3 25.7 0.00 0.00 0.00 28 1014.5
20260503191550 15 15 3.2 24.1 0.00 0.00 0.00 30 1014.6
20260503184543 15 22 12.9 30.6 0.00 0.00 0.00 28 1015.1
20260503183057 15 15 6.4 29.0 0.00 0.00 0.00 29 1015.1
20260503181541 15 19 9.7 32.2 0.00 0.00 0.00 28 1015.2
20260503180056 14 17 8.0 25.7 0.00 0.00 0.00 28 1015.4
20260503174550 14 13 9.7 27.4 0.00 0.00 0.00 28 1015.5
20260503173103 13 19 8.0 24.1 0.00 0.00 0.00 29 1015.3
20260503171550 12 18 12.9 40.2 0.00 0.00 0.00 30 1015.8
20260503081550 5 132 6.4 17.7 0.00 0.00 0.00 61 1015.5